HAWK-C

Last updated on Tue Sep 22 2026 00:03:52 GMT+0000 (Coordinated Universal Time)

1 43799U 18099AT 26263.88713486 .00004798 00000+0 16748-3 0 9999 2 43799 97.3792 316.2909 0037713 307.6124 52.1695 15.29405189428539
UTC large
Height (km)
Speed (km/s)
/
Latitude / Longitude
Inclination (degrees)
Orbital Period (minutes)
Azimuth
Elevation
Range (km)
Doppler Factor

Next 0 passes for location: London (51.5072 / 0.1276)

No passes found over London.
HAWK-C